Location: Bacea
(45.9500°N, 22.6667°E)
Time: 12:02:17
(UTC+00:00)

Cosmos 2263 Rocket - Pass Details

Date: 29 May 2022
Orbit: 825 x 847 km, 71.0° (Epoch: 30 June)

Event Time Altitude Azimuth Distance (km) Brightness Sun altitude
Rises 20:50:07 0° 317° (NW) 3,376 6.7 -18.9°
Reaches altitude 10° 20:53:38 10° 295° (WNW) 2,434 5.3 -19.1°
Maximum altitude 20:56:36 15° 263° (W) 2,106 4.4 -19.3°
Drops below altitude 10° 20:59:33 10° 230° (SW) 2,422 4.4 -19.5°
Enters shadow 21:00:27 - 223° (SW) 2,620 4.5 -19.5°
